This is the latest recevied weather packets stored in our database for station/object WA0LM. If no packets are shown the sender has not sent any weather packets the latest 10 day(s).
| Time | Temp. | Humidity | Pressure | Rain* | Wind** | Luminosity | Snow |
|---|---|---|---|---|---|---|---|
| 1777906081 | 9.44° C | 63% | 996.9 hPa | 0 mm | - | 173 W/m² | - |
| 1777905777 | 10° C | 64% | 997 hPa | 0 mm | - | 288 W/m² | - |
| 1777905474 | 10.56° C | 65% | 997 hPa | 0 mm | - | 348 W/m² | - |
| 1777905172 | 10° C | 65% | 996.7 hPa | 0 mm | - | 181 W/m² | - |
| 1777904869 | 10.56° C | 62% | 996.7 hPa | 0 mm | - | 218 W/m² | - |
| 1777904566 | 10.56° C | 60% | 996.8 hPa | 0 mm | - | 248 W/m² | - |
| 1777904263 | 10.56° C | 63% | 996.5 hPa | 0 mm | - | 366 W/m² | - |
| 1777903961 | 10.56° C | 60% | 996.4 hPa | 0 mm | - | 299 W/m² | - |
| 1777903657 | 10.56° C | 59% | 996.4 hPa | 0 mm | - | 245 W/m² | - |
| 1777903352 | 10.56° C | 63% | 996.2 hPa | 0 mm | - | 260 W/m² | - |
| 1777903049 | 10.56° C | 63% | 996.3 hPa | 0 mm | - | 365 W/m² | - |
| 1777902746 | 10.56° C | 64% | 996.2 hPa | 0 mm | - | 320 W/m² | - |
| 1777902443 | 10.56° C | 65% | 996.3 hPa | 0 mm | - | 140 W/m² | - |
| 1777902140 | 10.56° C | 64% | 996.2 hPa | 0 mm | - | 161 W/m² | - |
| 1777901838 | 10.56° C | 67% | 996.2 hPa | 0 mm | - | 183 W/m² | - |
| 1777901535 | 10.56° C | 67% | 996 hPa | 0 mm | - | 133 W/m² | - |
| 1777901233 | 10.56° C | 65% | 996.2 hPa | 0 mm | - | 125 W/m² | - |
| 1777900930 | 10.56° C | 69% | 996.1 hPa | 0 mm | - | 114 W/m² | - |
| 1777900627 | 10.56° C | 67% | 996.1 hPa | 0 mm | - | 109 W/m² | - |
| 1777900324 | 10.56° C | 68% | 995.9 hPa | 0 mm | - | 86 W/m² | - |
| 1777900021 | 10.56° C | 66% | 996 hPa | 0 mm | - | 84 W/m² | - |
| 1777899717 | 10.56° C | 68% | 995.9 hPa | 0 mm | - | 123 W/m² | - |
| 1777899415 | 10.56° C | 65% | 995.9 hPa | 0 mm | - | 120 W/m² | - |
| 1777899113 | 10.56° C | 65% | 995.6 hPa | 0 mm | - | 77 W/m² | - |
| 1777898809 | 10.56° C | 64% | 995.7 hPa | 0 mm | - | 101 W/m² | - |
* Rain latest hour (hover to see other rain measurements)
** Current wind speed in m/s (hover to see current wind gust speed)